STARLINK-30439, 57867

Orbit data source: Space-Track

STARLINK-30439, 57867 is a payload satellite owned by SpaceX/Seattle (US) in LEO that was launched on Sat, 16 Sep 2023 UTC via an FALCON 9 launch vehicle from the Air Force Eastern Test Range (AFETR). Payload-class satellites include a variety of spacecraft equipped with specific instruments for various scientific and technological missions. These include communications satellites like Starlink; space stations such as the ISS; scientific satellites like the Hubble; Earth observation satellites from companies like Planet Labs, Umbra, and HawkEye 360; GPS; miniature CubeSats for education and research; and military/defense satellites.

Loading next visibility...
Identifier
57867, 2023-144D
Orbit
LEO
Country
Flag of USUS
Related business
Manufacturer
SpaceX/Seattle
Mission
Operational Commercial Communications
Bus & Motor
STARLINK V2M, Unknown motor
Mass
730 kg wet, ~700 kg dry
Launch date (UTC)
2023-09-16 (3 years ago)
Launch vehicle
FALCON 9
Launch site
Air Force Eastern Test Range (AFETR)
Object type
Payload
Rocket body
Debris
Shape & HBR
Box + 2 Pan, 17.7 m
Radar Cross Section
33.884 m², Large (>1 m²)

Expand to show TLE details & history
Last TLE update: 2 days ago

TLE from 2 days ago
0 STARLINK-30439
1 57867U 23144D   26171.05636267  .00016869  00000-0  62074-3 0  9991
2 57867  42.9998  67.0439 0001443 272.9063  87.1623 15.27600183153308
Epoch: 2026-06-20T01:21Z
TLE epoch observation values (Epoch: 2026-06-20T01:21:09.734Z)
Latitude
-0.00006°
Longitude
138.47681°
Altitude
482.715 km
Speed
7.626 km/s
True Right ascension
04h 28m 10s
True Declination
0° 00' 00"
Sunlit
Object was in daylight at epoch
Visualization orbit readout
Latitude
Unknown
Longitude
Unknown
Altitude
Unknown
Speed
Unknown
Apparent Right ascension
Unknown
Apparent Declination
Unknown
Sunlit
N/A
Visualization observer readout
Local Sidereal Time
21:52:33
Azimuth
Unknown
Elevation
Unknown
Doppler factor
Unknown
Orbital elements
Apogee altitude
485.924 km
Perigee altitude
483.944 km
Semi-major axis
6,863.071 km
Eccentricity
0.00014
Inclination
42.9998°
RAAN
67.0439°
Arg. of periapsis
272.9063°
True anomaly
87.17882°
Mean anomaly
87.1623°
Eccentric anomaly
87.17056°
Mean motion
3.81738 °/min
Orbital period
94.31 mins
BSTAR
0.00062074
Loading maneuver chart data...
Computing Atmospheric mass density...
Loading historical data...
Loading historical data...
Loading historical data...
Loading historical data...
Loading historical data...
Loading historical data...
Loading historical data...

Documentation

Showing up to 5 results
|